Location: Heiligenberg
(48.5381°N, 7.3897°E)
Time: 19:43:02
(UTC+00:00)

USA 229 DEB - Pass Details

Date: 26 May 2022
Orbit: 934 x 1278 km, 63.4° (Epoch: 24 May)

Event Time Altitude Azimuth Distance (km) Brightness Sun altitude
Rises 01:01:03 0° 315° (NW) 3,992 7.0 -17.3°
Reaches altitude 10° 01:03:51 10° 308° (NW) 3,077 6.3 -17.1°
Maximum altitude 01:10:36 39° 243° (WSW) 1,744 4.4 -16.6°
Enters shadow 01:15:06 21° 189° (S) 2,472 5.0 -16.3°
